Location: Colonie
(42.7179°N, 73.8335°W)
Time: 05:56:16
(UTC+00:00)

COSMO-SKYMED 1 - Pass Details

Date: 29 October 2020
Orbit: 621 x 623 km, 97.9° (Epoch: 27 November)

Event Time Altitude Azimuth Distance (km) Brightness Sun altitude
Rises 23:31:23 0° 6° (N) 2,912 5.9 -18.9°
Reaches altitude 10° 23:33:38 10° 0° (N) 2,001 5.2 -19.3°
Maximum altitude 23:37:47 45° 288° (WNW) 851 3.7 -20.1°
Drops below altitude 10° 23:41:54 10° 216° (SW) 1,986 5.6 -20.8°
Sets 23:44:09 0° 210° (SSW) 2,887 6.4 -21.3°
